Location: Highland Meadows Observing Site
(48.4428°N, 114.5461°W)
Time: 06:46:02
(UTC-07:00)

Amateur Radio Satellites - All Passes

Search period start: 20 December 2014 06:16
Search period end: 21 December 2014 06:16
Location: Highland Meadows Observing Site, 48.4428°N, 114.5461°W

Satellite Date Start Highest point End Downlink Frequencies (MHz)
Time Altitude Azimuth
PRISM 20 Dec 06:19:03 06:23:10 50° 260° (W) 06:27:19 437.425
GONETS M04 20 Dec 06:35:47 06:44:39 87° 279° (W) 06:53:33
AO-7 20 Dec 06:36:33 06:44:18 44° 303° (WNW) 06:52:01 29.400- 29.500
Cubesat XI-IV 20 Dec 06:36:53 06:41:56 42° 98° (E) 06:46:58 437.490
VERMONT LUNAR 20 Dec 06:36:55 06:39:43 22° 184° (S) 06:42:31 437.305
STRAND 1 20 Dec 06:41:02 06:46:09 79° 256° (WSW) 06:51:17 437.568
CUBESAT XI-V 20 Dec 06:43:47 06:48:26 66° 258° (WSW) 06:53:06 437.345
PHONESAT 2.4 20 Dec 06:48:11 06:51:07 23° 182° (S) 06:54:03 2401.200-2431.200
JAS-2 20 Dec 06:56:28 07:01:51 39° 296° (WNW) 07:06:47 435.910
CUTE-I 20 Dec 07:10:11 07:15:32 78° 104° (ESE) 07:20:51 437.470
SO-50 20 Dec 07:56:19 07:58:24 13° 252° (WSW) 08:00:30 436.795
VERMONT LUNAR 20 Dec 08:15:39 08:17:19 13° 201° (SSW) 08:18:59 437.305
Cubesat XI-IV 20 Dec 08:17:14 08:21:55 32° 297° (WNW) 08:26:35 437.490
STRAND 1 20 Dec 08:24:34 08:26:11 11° 274° (W) 08:27:47 437.568
PHONESAT 2.4 20 Dec 08:26:57 08:29:07 15° 199° (SSW) 08:31:17 2401.200-2431.200
AO-7 20 Dec 08:31:03 08:34:58 14° 327° (NNW) 08:38:53 29.400- 29.500
AAUSAT CUBESAT 2 20 Dec 08:35:45 08:36:19 10° 86° (E) 08:36:52 437.432
GONETS M04 20 Dec 08:36:06 08:42:53 24° 303° (WNW) 08:49:42
HO-68 20 Dec 08:40:50 08:46:52 29° 93° (E) 08:52:51 435.675
CANX-2 20 Dec 08:45:26 08:48:51 22° 92° (E) 08:52:14 2200.000
ANTELSAT 20 Dec 08:50:59 08:53:12 14° 56° (ENE) 08:55:26 437.575/2403.000
CUTE-I 20 Dec 08:51:21 08:55:01 19° 303° (WNW) 08:58:40 437.470
YUBILEINY 20 Dec 08:51:58 08:55:38 13° 45° (NE) 08:59:16 435.215
BRITE-PL 20 Dec 08:58:25 09:02:37 33° 96° (E) 09:07:05 437.365/2234.400
QB50P1 20 Dec 09:04:15 09:05:35 11° 56° (ENE) 09:06:56 145.935-145.965
COMPASS 1 20 Dec 09:08:17 09:11:51 25° 94° (E) 09:15:24 437.405
O/OREOS (USA 219) 20 Dec 09:10:52 09:13:34 15° 44° (NE) 09:16:15 437.305
SEEDS 20 Dec 09:13:04 09:16:58 33° 96° (E) 09:20:51 437.485
CUTE 1.7 + AOD 2 20 Dec 09:15:51 09:19:57 40° 98° (E) 09:24:01 437.475
TIGRISAT 20 Dec 09:25:01 09:28:38 26° 64° (ENE) 09:32:21 435.000
GOMX 1 20 Dec 09:26:55 09:31:25 44° 99° (E) 09:36:13 467.674
CUSAT 1 20 Dec 09:27:46 09:30:57 24° 84° (E) 09:34:58 437.405
DELFI C3 20 Dec 09:27:55 09:30:27 16° 90° (E) 09:32:58 145.870
DX 1 20 Dec 09:28:52 09:31:19 15° 90° (E) 09:33:45 434.975-435.025
POPSAT HIP 1 20 Dec 09:30:53 09:33:56 20° 62° (ENE) 09:37:00 437.405
MaSat-1 20 Dec 09:36:00 09:38:15 54° 118° (ESE) 09:40:26 437.345
Oscar 11 20 Dec 09:50:57 09:54:54 32° 96° (E) 09:58:48 145.826/435.025
UNISAT 6 20 Dec 09:53:14 09:57:27 47° 70° (ENE) 10:01:47 437.425
DOVE 4 20 Dec 09:54:01 09:58:41 61° 101° (E) 10:03:37 437.250
DUCHIFAT 1 20 Dec 09:58:09 10:01:57 34° 67° (ENE) 10:05:46 145.980
BUGSAT 1 20 Dec 09:59:15 10:02:46 29° 66° (ENE) 10:06:17 437.445
UKube-1 20 Dec 09:59:23 10:03:08 28° 95° (E) 10:06:52 .
CUBEBUG 2 20 Dec 10:08:00 10:12:12 33° 96° (E) 10:16:28 437.445
AAUSAT CUBESAT 2 20 Dec 10:08:21 10:12:38 89° 284° (WNW) 10:16:52 437.432
QB50P2 20 Dec 10:11:10 10:15:12 47° 70° (ENE) 10:19:17 145.880/145.840
DANDE 20 Dec 10:17:01 10:20:37 60° 96° (E) 10:25:30 436.750
POLYITAN 1 20 Dec 10:19:46 10:23:54 57° 72° (ENE) 10:28:04 437.675
ZACube-1 20 Dec 10:20:14 10:24:19 32° 96° (E) 10:28:26 437.345
CANX-2 20 Dec 10:20:52 10:24:58 42° 290° (WNW) 10:29:02 2200.000
VELOX 1 20 Dec 10:21:36 10:24:41 18° 91° (E) 10:27:46 145.980
CINEMA 3 20 Dec 10:22:05 10:26:46 70° 102° (ESE) 10:31:39 145.822/145.860
NANOSAT C BR1 20 Dec 10:22:18 10:26:26 60° 72° (ENE) 10:30:36 145.865
ANTELSAT 20 Dec 10:24:55 10:29:19 87° 255° (WSW) 10:33:52 437.575/2403.000
HO-68 20 Dec 10:28:01 10:35:07 67° 293° (WNW) 10:42:10 435.675
QB50P1 20 Dec 10:36:34 10:40:47 84° 76° (ENE) 10:45:02 145.935-145.965
BRITE-PL 20 Dec 10:37:00 10:41:08 34° 292° (WNW) 10:45:33 437.365/2234.400
COMPASS 1 20 Dec 10:43:45 10:47:40 36° 292° (WNW) 10:51:33 437.405
YUBILEINY 20 Dec 10:46:40 10:55:05 50° 71° (ENE) 11:03:28 435.215
UWE-3 20 Dec 10:46:43 10:51:17 68° 102° (ESE) 10:55:55 435.000/436.395/437.385
FUNcube-1 20 Dec 10:46:52 10:51:19 57° 100° (E) 10:55:50 145.935
SEEDS 20 Dec 10:49:02 10:52:44 29° 294° (WNW) 10:56:24 437.485
O/OREOS (USA 219) 20 Dec 10:49:08 10:53:40 88° 64° (ENE) 10:58:12 437.305
CUTE 1.7 + AOD 2 20 Dec 10:52:12 10:55:41 24° 296° (WNW) 10:59:10 437.475
RS-15 20 Dec 10:53:14 11:00:59 23° 100° (E) 11:08:43 29.354- 29.394
TIGRISAT 20 Dec 11:01:07 11:05:13 39° 263° (W) 11:09:27 435.000
DELFI C3 20 Dec 11:02:01 11:06:05 56° 288° (WNW) 11:10:07 145.870
50 SAT 20 Dec 11:03:38 11:07:35 41° 98° (E) 11:11:31 437.505
DX 1 20 Dec 11:03:41 11:08:01 66° 288° (WNW) 11:12:19 434.975-435.025
AISAT 20 Dec 11:03:47 11:08:05 47° 100° (E) 11:12:21 437.250
POPSAT HIP 1 20 Dec 11:05:27 11:09:32 49° 260° (W) 11:13:38 437.405
GOMX 1 20 Dec 11:05:32 11:09:23 26° 295° (WNW) 11:13:27 467.674
CUSAT 1 20 Dec 11:10:05 11:13:44 35° 294° (WNW) 11:18:33 437.405
CUBEBUG 1 20 Dec 11:11:24 11:14:52 23° 93° (E) 11:18:19 437.445
HUMSAT D 20 Dec 11:23:11 11:27:32 81° 103° (ESE) 11:31:53 437.325/437.525
Oscar 11 20 Dec 11:27:11 11:31:01 30° 294° (WNW) 11:34:50 145.826/435.025
UNISAT 6 20 Dec 11:31:10 11:34:31 21° 269° (W) 11:37:56 437.425
DOVE 4 20 Dec 11:32:41 11:36:06 21° 298° (WNW) 11:39:40 437.250
DUCHIFAT 1 20 Dec 11:34:21 11:37:53 26° 266° (W) 11:41:27 145.980
BUGSAT 1 20 Dec 11:34:38 11:38:14 29° 264° (W) 11:41:50 437.445
UKube-1 20 Dec 11:35:25 11:39:20 34° 294° (WNW) 11:43:14 .
Oscar 19 20 Dec 11:36:37 11:39:44 16° 55° (NE) 11:42:51 437.125/150
CUBEBUG 2 20 Dec 11:44:47 11:48:52 32° 293° (WNW) 11:53:02 437.445
AAUSAT CUBESAT 2 20 Dec 11:45:58 11:47:38 12° 303° (WNW) 11:49:17 437.432
QB50P2 20 Dec 11:48:20 11:51:23 19° 268° (W) 11:54:27 145.880/145.840
ZACube-1 20 Dec 11:56:39 12:00:40 32° 293° (WNW) 12:04:43 437.345
VELOX 1 20 Dec 11:57:17 12:01:36 54° 289° (WNW) 12:05:55 145.980
POLYITAN 1 20 Dec 11:57:38 12:00:14 16° 270° (W) 12:02:51 437.675
ESTCUBE 1 20 Dec 11:58:37 12:03:08 70° 103° (ESE) 12:07:36 437.505/2401.250
NANOSAT C BR1 20 Dec 12:00:15 12:02:43 15° 270° (W) 12:05:12 145.865
CINEMA 3 20 Dec 12:00:24 12:03:32 18° 299° (WNW) 12:06:44 145.822/145.860
DANDE 20 Dec 12:02:27 12:05:01 16° 306° (NW) 12:08:01 436.750
ANTELSAT 20 Dec 12:06:09 12:06:53 10° 275° (W) 12:07:37 437.575/2403.000
QB50P1 20 Dec 12:16:15 12:17:17 11° 273° (W) 12:18:20 145.935-145.965
HO-68 20 Dec 12:17:10 12:21:35 18° 314° (NW) 12:26:00 435.675
TISAT 1 20 Dec 12:17:51 12:21:33 29° 95° (E) 12:25:14 437.305
SPROUT 20 Dec 12:20:15 12:24:02 29° 95° (E) 12:27:48 437.525
FUNcube-1 20 Dec 12:24:04 12:27:18 20° 298° (WNW) 12:30:34 145.935
UWE-3 20 Dec 12:24:21 12:27:22 18° 300° (WNW) 12:30:24 435.000/436.395/437.385
O/OREOS (USA 219) 20 Dec 12:30:47 12:32:21 12° 263° (W) 12:33:56 437.305
50 SAT 20 Dec 12:39:21 12:42:35 23° 296° (WNW) 12:45:50 437.505
AISAT 20 Dec 12:41:00 12:44:26 22° 298° (WNW) 12:47:52 437.250
YUBILEINY 20 Dec 12:43:48 12:51:47 43° 274° (W) 12:59:46 435.215
CUBEBUG 1 20 Dec 12:47:20 12:51:25 41° 291° (WNW) 12:55:28 437.445
SWISSCUBE 20 Dec 12:58:18 13:01:02 15° 89° (E) 13:03:45 437.505
ITUPSAT 1 20 Dec 12:58:54 13:01:21 14° 88° (E) 13:03:47 437.325
HUMSAT D 20 Dec 13:00:33 13:02:45 14° 302° (WNW) 13:04:58 437.325/437.525
RS-15 20 Dec 13:00:37 13:11:31 81° 124° (SE) 13:22:33 29.354- 29.394
Oscar 19 20 Dec 13:13:13 13:18:22 89° 255° (WSW) 13:23:35 437.125/150
PCSat 20 Dec 13:14:36 13:17:41 16° 104° (ESE) 13:20:46 145.827
BEESAT 20 Dec 13:22:33 13:26:22 23° 93° (E) 13:30:09 436.000
Gurwin Techsat 1B 20 Dec 13:23:05 13:27:43 32° 63° (ENE) 13:32:23 435.225
HORYU 2 20 Dec 13:27:30 13:29:41 14° 56° (NE) 13:31:52 437.375
ITAMSAT 1 20 Dec 13:28:39 13:33:41 53° 69° (ENE) 13:38:43 435.822/435.867
ESTCUBE 1 20 Dec 13:36:41 13:39:29 17° 301° (WNW) 13:42:17 437.505/2401.250
BEESAT 3 20 Dec 13:42:39 13:46:21 34° 118° (ESE) 13:50:08 437.485
AIST 2 20 Dec 13:49:21 13:52:21 19° 113° (ESE) 13:55:22 435.215
TISAT 1 20 Dec 13:53:38 13:57:23 31° 293° (WNW) 14:01:07 437.305
AO-7 20 Dec 13:56:00 14:02:44 29° 49° (NE) 14:09:30 29.400- 29.500
SPROUT 20 Dec 13:56:18 14:00:08 32° 293° (WNW) 14:03:57 437.525
BEESAT 2 20 Dec 14:21:53 14:25:59 71° 125° (SE) 14:30:11 435.950
AUBIESAT-1 20 Dec 14:22:08 14:25:52 26° 98° (E) 14:29:18 437.475
STARS 20 Dec 14:26:30 14:29:03 15° 89° (E) 14:31:36 437.465
KKS-1 20 Dec 14:29:06 14:32:39 23° 93° (E) 14:36:12 437.445
SWISSCUBE 20 Dec 14:34:40 14:39:27 74° 287° (WNW) 14:44:11 437.505
ITUPSAT 1 20 Dec 14:35:03 14:39:51 81° 286° (WNW) 14:44:37 437.325
GONETS M04 20 Dec 14:46:16 14:51:04 15° 48° (NE) 14:55:50
M-CUBED/EXP-1 PRIME 20 Dec 14:47:17 14:51:41 51° 105° (ESE) 14:55:40 437.505
PCSat 20 Dec 14:54:53 15:00:19 88° 124° (SE) 15:05:47 145.827
Oscar 19 20 Dec 14:56:00 14:58:28 13° 274° (W) 15:00:57 437.125/150
BEESAT 20 Dec 14:59:52 15:04:28 48° 291° (WNW) 15:09:01 436.000
HORYU 2 20 Dec 15:01:12 15:05:41 89° 255° (WSW) 15:10:13 437.375
ISS 20 Dec 15:01:24 15:04:37 51° 150° (SSE) 15:07:50 145.825
Gurwin Techsat 1B 20 Dec 15:02:33 15:07:34 43° 262° (W) 15:12:38 435.225
ITAMSAT 1 20 Dec 15:09:20 15:13:29 24° 267° (W) 15:17:39 435.822/435.867
RS-15 20 Dec 15:14:40 15:24:59 45° 332° (NNW) 15:35:32 29.354- 29.394
BEESAT 3 20 Dec 15:20:41 15:24:31 36° 318° (NW) 15:28:25 437.485
AIST 2 20 Dec 15:26:19 15:30:33 62° 312° (NW) 15:34:51 435.215
JAS-2 20 Dec 15:26:21 15:32:39 31° 61° (ENE) 15:38:28 435.910
AO-7 20 Dec 15:46:18 15:54:39 87° 250° (WSW) 16:03:05 29.400- 29.500
AUBIESAT-1 20 Dec 15:56:48 16:00:56 37° 299° (WNW) 16:04:45 437.475
BEESAT 2 20 Dec 16:01:23 16:04:41 22° 326° (NW) 16:08:01 435.950
STARS 20 Dec 16:01:35 16:06:00 67° 287° (WNW) 16:10:24 437.465
KKS-1 20 Dec 16:05:15 16:09:30 44° 291° (WNW) 16:13:44 437.445
AIST 1 20 Dec 16:08:34 16:11:48 21° 87° (E) 16:15:03
SWISSCUBE 20 Dec 16:14:38 16:16:30 12° 306° (NW) 16:18:20 437.505
ITUPSAT 1 20 Dec 16:14:48 16:16:59 13° 305° (NW) 16:19:10 437.325
M-CUBED/EXP-1 PRIME 20 Dec 16:22:52 16:26:20 22° 305° (NW) 16:29:35 437.505
Cubesat XI-IV 20 Dec 16:25:11 16:28:39 18° 56° (NE) 16:32:08 437.490
ISS 20 Dec 16:37:59 16:41:14 53° 349° (N) 16:44:28 145.825
PCSat 20 Dec 16:40:07 16:44:27 24° 325° (NW) 16:48:48 145.827
GONETS M04 20 Dec 16:41:34 16:50:14 59° 74° (ENE) 16:58:47
HORYU 2 20 Dec 16:41:47 16:43:02 11° 273° (W) 16:44:18 437.375
CUTE-I 20 Dec 16:57:04 17:01:37 30° 62° (ENE) 17:06:11 437.470
BEESAT 3 20 Dec 17:02:23 17:03:54 12° 341° (NNW) 17:05:25 437.485
AIST 2 20 Dec 17:07:18 17:10:02 16° 333° (NNW) 17:12:46 435.215
JAS-2 20 Dec 17:09:46 17:17:20 67° 258° (WSW) 17:24:12 435.910
MOZHAYETS 4 20 Dec 17:13:58 17:18:21 40° 97° (E) 17:22:41
MaSat-1 20 Dec 17:30:27 17:32:00 16° 51° (NE) 17:33:35 437.345
RS-15 20 Dec 17:31:00 17:40:47 35° 6° (N) 17:50:52 29.354- 29.394
STARS 20 Dec 17:41:26 17:41:38 10° 306° (NW) 17:41:51 437.465
AO-7 20 Dec 17:42:38 17:48:36 21° 271° (W) 17:54:39 29.400- 29.500
AIST 1 20 Dec 17:45:00 17:49:11 43° 285° (WNW) 17:53:22
PRISM 20 Dec 17:59:21 18:02:11 18° 91° (E) 18:04:59 437.425
Cubesat XI-IV 20 Dec 18:02:45 18:08:06 85° 255° (WSW) 18:13:28 437.490
ISS 20 Dec 18:14:53 18:18:08 51° 10° (N) 18:21:21 145.825
CUSAT 1 20 Dec 18:19:29 18:22:07 12° 49° (NE) 18:24:53 437.405
PCSat 20 Dec 18:28:23 18:29:58 11° 351° (N) 18:31:32 145.827
CUTE-I 20 Dec 18:36:24 18:41:31 46° 261° (W) 18:46:38 437.470
CUBESAT XI-V 20 Dec 18:37:25 18:41:09 24° 93° (E) 18:44:52 437.345
GONETS M04 20 Dec 18:38:56 18:46:41 37° 276° (W) 18:54:22
STRAND 1 20 Dec 18:48:15 18:52:31 26° 94° (E) 18:56:46 437.568
MOZHAYETS 4 20 Dec 18:51:32 18:55:25 27° 296° (WNW) 18:59:17
JAS-2 20 Dec 18:59:51 19:03:25 14° 276° (W) 19:06:52 435.910
MaSat-1 20 Dec 19:03:25 19:05:16 20° 247° (WSW) 19:07:12 437.345
DANDE 20 Dec 19:09:41 19:15:06 22° 59° (ENE) 19:21:09 436.750
HO-68 20 Dec 19:13:33 19:19:48 34° 57° (ENE) 19:26:04 435.675
DOVE 4 20 Dec 19:29:46 19:31:12 12° 56° (NE) 19:32:39 437.250
AAUSAT CUBESAT 2 20 Dec 19:30:13 19:32:15 13° 58° (ENE) 19:34:17 437.432
PRISM 20 Dec 19:33:58 19:38:01 50° 290° (WNW) 19:42:01 437.425
CANX-2 20 Dec 19:42:19 19:45:53 26° 65° (ENE) 19:49:30 2200.000
RS-15 20 Dec 19:45:05 19:56:03 57° 38° (NE) 20:07:27 29.354- 29.394
Cubesat XI-IV 20 Dec 19:46:35 19:49:00 13° 274° (W) 19:51:26 437.490
ISS 20 Dec 19:51:32 19:54:46 55° 209° (SSW) 19:57:58 145.825
CINEMA 3 20 Dec 19:53:55 19:55:45 13° 57° (ENE) 19:57:38 145.822/145.860
CUSAT 1 20 Dec 19:59:53 20:06:59 45° 70° (ENE) 20:15:01 437.405
COMPASS 1 20 Dec 20:03:40 20:07:19 29° 66° (ENE) 20:11:01 437.405
SEEDS 20 Dec 20:09:03 20:12:59 38° 69° (ENE) 20:16:58 437.485
CUTE 1.7 + AOD 2 20 Dec 20:12:29 20:16:34 47° 70° (ENE) 20:20:43 437.475
PCSat 20 Dec 20:13:24 20:15:57 13° 18° (NNE) 20:18:30 145.827
BRITE-PL 20 Dec 20:13:46 20:17:48 51° 71° (ENE) 20:21:51 437.365/2234.400
CUBESAT XI-V 20 Dec 20:14:25 20:18:47 43° 291° (WNW) 20:23:08 437.345
UWE-3 20 Dec 20:14:52 20:16:18 12° 56° (NE) 20:17:46 435.000/436.395/437.385
DELFI C3 20 Dec 20:20:24 20:23:12 18° 62° (ENE) 20:26:01 145.870
BEESAT 3 20 Dec 20:21:09 20:23:56 17° 29° (NNE) 20:26:43 437.485
STRAND 1 20 Dec 20:27:03 20:31:56 47° 292° (WNW) 20:36:47 437.568
DX 1 20 Dec 20:28:00 20:31:20 22° 62° (ENE) 20:34:41 434.975-435.025
AIST 2 20 Dec 20:28:52 20:31:01 13° 22° (NNE) 20:33:10 435.215
AISAT 20 Dec 20:33:43 20:34:09 10° 54° (NE) 20:34:34 437.250
SO-50 20 Dec 20:34:21 20:36:40 14° 109° (ESE) 20:39:01 436.795
GOMX 1 20 Dec 20:39:33 20:43:40 68° 74° (ENE) 20:47:51 467.674
HUMSAT D 20 Dec 20:46:26 20:48:06 12° 57° (ENE) 20:49:46 437.325/437.525
Oscar 11 20 Dec 20:49:21 20:53:24 40° 69° (ENE) 20:57:30 145.826/435.025
DANDE 20 Dec 20:52:06 20:59:31 78° 77° (ENE) 21:08:11 436.750
UKube-1 20 Dec 20:58:02 21:02:04 39° 68° (ENE) 21:06:07 .
HO-68 20 Dec 21:00:04 21:07:09 62° 257° (WSW) 21:14:17 435.675
BEESAT 2 20 Dec 21:00:51 21:04:25 26° 37° (NE) 21:07:57 435.950
AAUSAT CUBESAT 2 20 Dec 21:03:06 21:07:19 81° 257° (WSW) 21:11:35 437.432
DOVE 4 20 Dec 21:04:09 21:08:17 90° 133° (SE) 21:12:33 437.250
CUBEBUG 2 20 Dec 21:10:26 21:14:22 41° 69° (ENE) 21:18:27 437.445
CANX-2 20 Dec 21:17:46 21:21:42 36° 263° (W) 21:25:42 2200.000
ZACube-1 20 Dec 21:20:19 21:24:13 39° 68° (ENE) 21:28:13 437.345
VELOX 1 20 Dec 21:23:04 21:26:47 27° 64° (ENE) 21:30:30 145.980
ESTCUBE 1 20 Dec 21:27:41 21:30:13 15° 58° (ENE) 21:32:44 437.505/2401.250
CINEMA 3 20 Dec 21:28:08 21:32:18 84° 256° (WSW) 21:36:38 145.822/145.860
ISS 20 Dec 21:30:03 21:30:44 11° 226° (SW) 21:31:25 145.825
COMPASS 1 20 Dec 21:39:13 21:43:00 31° 264° (W) 21:46:49 437.405
CUSAT 1 20 Dec 21:42:59 21:50:12 51° 267° (W) 21:58:17 437.405
SEEDS 20 Dec 21:45:28 21:48:56 24° 267° (W) 21:52:27 437.485
FUNcube-1 20 Dec 21:46:41 21:50:51 70° 74° (ENE) 21:55:09 145.935
UWE-3 20 Dec 21:47:55 21:52:07 85° 75° (ENE) 21:56:28 435.000/436.395/437.385
CUTE 1.7 + AOD 2 20 Dec 21:49:36 21:52:45 20° 269° (W) 21:55:56 437.475
BRITE-PL 20 Dec 21:54:04 21:56:42 16° 270° (W) 21:59:22 437.365/2234.400
DELFI C3 20 Dec 21:54:05 21:58:07 53° 260° (W) 22:02:11 145.870
50 SAT 20 Dec 21:55:37 21:59:25 43° 70° (ENE) 22:03:17 437.505
PCSat 20 Dec 21:56:07 22:01:04 34° 42° (NE) 22:06:00 145.827
RS-15 20 Dec 21:57:47 22:08:38 58° 244° (WSW) 22:19:59 29.354- 29.394
BEESAT 3 20 Dec 21:58:39 22:02:51 73° 50° (NE) 22:06:59 437.485
DX 1 20 Dec 22:03:08 22:07:19 46° 260° (W) 22:11:31 434.975-435.025
AISAT 20 Dec 22:05:33 22:09:57 69° 73° (ENE) 22:14:21 437.250
AIST 2 20 Dec 22:06:35 22:10:44 43° 44° (NE) 22:14:50 435.215
CUBEBUG 1 20 Dec 22:11:21 22:15:12 32° 66° (ENE) 22:19:04 437.445
SO-50 20 Dec 22:11:54 22:16:28 90° 120° (ESE) 22:21:14 436.795
ANTELSAT 20 Dec 22:14:24 22:17:27 17° 89° (E) 22:20:29 437.575/2403.000
HUMSAT D 20 Dec 22:19:05 22:23:14 88° 256° (WSW) 22:27:28 437.325/437.525
GOMX 1 20 Dec 22:20:33 22:22:22 13° 272° (W) 22:24:12 467.674
QB50P1 20 Dec 22:20:49 22:21:53 11° 87° (E) 22:22:58 145.935-145.965
Oscar 11 20 Dec 22:26:13 22:29:44 24° 267° (W) 22:33:16 145.826/435.025
UKube-1 20 Dec 22:34:51 22:38:22 24° 266° (W) 22:41:55 .
DANDE 20 Dec 22:36:24 22:42:33 28° 274° (W) 22:49:24 436.750
BEESAT 2 20 Dec 22:38:50 22:42:57 55° 237° (WSW) 22:47:01 435.950
POPSAT HIP 1 20 Dec 22:47:45 22:50:59 21° 92° (E) 22:54:13 437.405
CUBEBUG 2 20 Dec 22:48:02 22:51:18 22° 268° (W) 22:54:39 437.445
TIGRISAT 20 Dec 22:48:55 22:53:11 33° 96° (E) 22:57:27 435.000
HO-68 20 Dec 22:54:00 22:56:21 12° 278° (W) 22:58:43 435.675
ZACube-1 20 Dec 22:57:22 23:00:45 23° 267° (W) 23:04:12 437.345
VELOX 1 20 Dec 22:59:08 23:03:14 37° 262° (W) 23:07:22 145.980
ESTCUBE 1 20 Dec 23:01:57 23:06:30 81° 256° (WSW) 23:11:04 437.505/2401.250
BUGSAT 1 20 Dec 23:13:09 23:16:41 28° 96° (E) 23:20:13 437.445
TISAT 1 20 Dec 23:14:06 23:17:57 36° 68° (ENE) 23:21:49 437.305
DUCHIFAT 1 20 Dec 23:15:07 23:19:06 37° 98° (E) 23:23:04 145.980
UNISAT 6 20 Dec 23:17:59 23:22:40 64° 101° (ESE) 23:27:22 437.425
SPROUT 20 Dec 23:18:12 23:22:08 37° 68° (ENE) 23:26:04 437.525
FUNcube-1 20 Dec 23:25:46 23:27:45 13° 272° (W) 23:29:46 145.935
UWE-3 20 Dec 23:28:24 23:29:21 11° 274° (W) 23:30:19 435.000/436.395/437.385
QB50P2 20 Dec 23:28:45 23:32:57 53° 100° (E) 23:37:08 145.880/145.840
CUSAT 1 20 Dec 23:29:55 23:31:54 11° 285° (WNW) 23:33:56 437.405
50 SAT 20 Dec 23:31:55 23:34:52 19° 268° (W) 23:37:50 437.505
POLYITAN 1 20 Dec 23:37:39 23:41:56 66° 102° (ESE) 23:46:12 437.675
BEESAT 3 20 Dec 23:38:03 23:40:31 15° 249° (WSW) 23:42:56 437.485
PCSat 20 Dec 23:39:27 23:44:43 52° 243° (WSW) 23:49:56 145.827
NANOSAT C BR1 20 Dec 23:39:38 23:43:54 68° 102° (ESE) 23:48:08 145.865
AUBIESAT-1 20 Dec 23:41:56 23:44:12 13° 49° (NE) 23:46:28 437.475
AISAT 20 Dec 23:44:37 23:47:03 15° 271° (W) 23:49:30 437.250
AIST 2 20 Dec 23:45:31 23:49:13 28° 244° (WSW) 23:52:51 435.215
CUBEBUG 1 20 Dec 23:47:42 23:51:34 30° 264° (W) 23:55:26 437.445
ANTELSAT 20 Dec 23:50:00 23:54:41 67° 287° (WNW) 23:59:23 437.575/2403.000
YUBILEINY 20 Dec 23:52:15 00:00:31 50° 89° (E) 00:08:47 435.215
SO-50 20 Dec 23:54:01 23:57:41 22° 330° (NNW) 00:01:26 436.795
QB50P1 20 Dec 23:54:07 23:58:24 86° 285° (WNW) 00:02:40 145.935-145.965
M-CUBED/EXP-1 PRIME 21 Dec 00:06:03 00:09:43 22° 54° (NE) 00:13:23 437.505
SWISSCUBE 21 Dec 00:08:13 00:12:15 28° 63° (ENE) 00:16:17 437.505
ITUPSAT 1 21 Dec 00:08:55 00:12:52 26° 62° (ENE) 00:16:49 437.325
RS-15 21 Dec 00:13:36 00:18:26 14° 266° (W) 00:23:22 29.354- 29.394
POPSAT HIP 1 21 Dec 00:23:02 00:27:06 44° 290° (WNW) 00:31:10 437.405
TIGRISAT 21 Dec 00:25:42 00:29:54 33° 294° (WNW) 00:34:07 435.000
BEESAT 21 Dec 00:32:35 00:37:04 41° 67° (ENE) 00:41:33 436.000
BUGSAT 1 21 Dec 00:48:38 00:52:10 29° 293° (WNW) 00:55:42 437.445
TISAT 1 21 Dec 00:50:24 00:53:52 25° 266° (W) 00:57:22 437.305
DUCHIFAT 1 21 Dec 00:51:19 00:54:48 25° 296° (WNW) 00:58:17 145.980
SPROUT 21 Dec 00:54:47 00:58:19 25° 266° (W) 01:01:53 437.525
UNISAT 6 21 Dec 00:55:43 00:59:02 19° 300° (WNW) 01:02:21 437.425
O/OREOS (USA 219) 21 Dec 01:05:06 01:09:23 48° 110° (ESE) 01:13:42 437.305
QB50P2 21 Dec 01:05:30 01:08:31 19° 298° (WNW) 01:11:32 145.880/145.840
AUBIESAT-1 21 Dec 01:13:29 01:18:18 68° 67° (ENE) 01:23:10 437.475
POLYITAN 1 21 Dec 01:14:46 01:17:25 16° 300° (WNW) 01:20:04 437.675
NANOSAT C BR1 21 Dec 01:16:46 01:19:17 16° 300° (WNW) 01:21:49 145.865
Oscar 19 21 Dec 01:21:32 01:25:46 25° 93° (E) 01:29:59 437.125/150
STARS 21 Dec 01:27:13 01:30:35 22° 62° (ENE) 01:33:58 437.465
ANTELSAT 21 Dec 01:29:26 01:30:37 11° 306° (NW) 01:31:48 437.575/2403.000
KKS-1 21 Dec 01:31:00 01:34:57 33° 66° (ENE) 01:38:56 437.445
QB50P1 21 Dec 01:32:05 01:33:36 12° 303° (WNW) 01:35:08 145.935-145.965
SO-50 21 Dec 01:38:14 01:40:00 12° 355° (N) 01:41:47 436.795
ITAMSAT 1 21 Dec 01:39:17 01:41:52 14° 87° (E) 01:44:26 435.822/435.867
M-CUBED/EXP-1 PRIME 21 Dec 01:39:24 01:44:15 69° 252° (WSW) 01:49:11 437.505
SWISSCUBE 21 Dec 01:45:23 01:49:56 43° 262° (W) 01:54:31 437.505
ITUPSAT 1 21 Dec 01:45:55 01:50:32 46° 261° (W) 01:55:11 437.325
YUBILEINY 21 Dec 01:49:15 01:57:28 44° 291° (WNW) 02:05:44 435.215
BEESAT 21 Dec 02:10:57 02:15:02 28° 266° (W) 02:19:09 436.000
O/OREOS (USA 219) 21 Dec 02:45:24 02:49:02 24° 310° (NW) 02:52:42 437.305
AUBIESAT-1 21 Dec 02:50:13 02:53:39 19° 265° (W) 02:57:06 437.475
HORYU 2 21 Dec 02:50:35 02:52:58 14° 89° (E) 02:55:21 437.375
Oscar 19 21 Dec 03:00:21 03:05:24 52° 291° (WNW) 03:10:25 437.125/150
STARS 21 Dec 03:02:34 03:06:48 47° 260° (W) 03:11:03 437.465
KKS-1 21 Dec 03:07:42 03:11:36 30° 264° (W) 03:15:32 437.445
Gurwin Techsat 1B 21 Dec 03:14:28 03:19:44 58° 101° (E) 03:24:57 435.225
ITAMSAT 1 21 Dec 03:16:53 03:22:05 89° 286° (WNW) 03:27:16 435.822/435.867
SO-50 21 Dec 03:19:42 03:22:34 15° 20° (NNE) 03:25:28 436.795
AO-7 21 Dec 03:44:23 03:51:03 26° 91° (E) 03:57:40 29.400- 29.500
AIST 1 21 Dec 03:48:12 03:52:30 68° 79° (ENE) 03:56:44
YUBILEINY 21 Dec 03:54:59 03:57:16 11° 318° (NW) 03:59:33 435.215
GONETS M04 21 Dec 03:57:27 04:00:40 13° 68° (ENE) 04:03:52
JAS-2 21 Dec 04:18:27 04:20:45 13° 83° (E) 04:22:59 435.910
MOZHAYETS 4 21 Dec 04:19:27 04:24:01 58° 72° (ENE) 04:28:37
VERMONT LUNAR 21 Dec 04:20:17 04:22:42 17° 165° (SSE) 04:25:07 437.305
HORYU 2 21 Dec 04:25:38 04:30:11 74° 287° (WNW) 04:34:41 437.375
STRAND 1 21 Dec 04:33:58 04:34:29 10° 50° (NE) 04:35:00 437.568
PHONESAT 2.4 21 Dec 04:36:36 04:39:01 17° 164° (SSE) 04:41:26 2401.200-2431.200
PRISM 21 Dec 04:53:38 04:57:00 23° 63° (ENE) 05:00:22 437.425
Gurwin Techsat 1B 21 Dec 04:55:08 04:59:20 25° 300° (WNW) 05:03:32 435.225
ITAMSAT 1 21 Dec 04:57:48 05:00:53 16° 305° (NW) 05:03:57 435.822/435.867
SO-50 21 Dec 04:59:42 05:04:21 43° 42° (NE) 05:09:02 436.795
AIST 1 21 Dec 05:27:36 05:29:34 13° 277° (W) 05:31:31
AO-7 21 Dec 05:36:21 05:44:46 83° 292° (WNW) 05:53:08 29.400- 29.500
CUBESAT XI-V 21 Dec 05:44:25 05:48:40 36° 67° (ENE) 05:52:55 437.345
GONETS M04 21 Dec 05:46:52 05:55:27 59° 91° (E) 06:04:02
VERMONT LUNAR 21 Dec 05:57:33 06:00:22 22° 182° (S) 06:03:12 437.305
MOZHAYETS 4 21 Dec 05:58:23 06:01:37 19° 270° (W) 06:04:53
JAS-2 21 Dec 06:01:12 06:07:01 85° 104° (ESE) 06:12:18 435.910
HORYU 2 21 Dec 06:04:38 06:06:03 11° 306° (NW) 06:07:28 437.375
